This demonstration page uses our WeatherBlox Daily Observations layout. Learn more.

41.55636, -103.73856

Hourly Observations for September 29, 2017

Temp ( °F °C ) Dew Point ( °F °C ) Humidity (%) Winds ( mph kmh ) Pressure ( in mb ) Visibility ( mi km ) Precip ( " mm )
12:53 am 00:53 Cloudy 53 11.7 50 10 89 89 E 5 7 30.25 1024 10 16.0934 0 0
1:53 am 01:53 Cloudy 53 11.7 50 10 89 89 Calm 30.25 1024 9 14.48406 0 0
2:53 am 02:53 Cloudy 51 10.6 48 8.9 89 89 E 5 7 30.23 1024 10 16.0934 0 0
3:53 am 03:53 Cloudy 51 10.6 49 9.4 92 92 ESE 3 6 30.22 1023 10 16.0934 0 0
4:53 am 04:53 Cloudy 51 10.6 48 8.9 89 89 E 6 9 30.22 1023 10 16.0934 0 0
5:53 am 05:53 Mostly Cloudy 49 9.4 46 7.8 90 90 E 6 9 30.23 1024 8 12.87472 0 0
6:53 am 06:53 Mostly Cloudy 48 8.9 46 7.8 93 93 Calm 30.24 1024 8 12.87472 0 0
7:53 am 07:53 Cloudy 50 10 47 8.3 89 89 SSE 6 9 30.25 1024 8 12.87472 0 0
8:53 am 08:53 Cloudy 52 11.1 48 8.9 86 86 SE 7 11 30.25 1024 10 16.0934 0 0
9:53 am 09:53 Cloudy 55 12.8 49 9.4 80 80 ESE 9 15 30.24 1024 10 16.0934 0 0
10:53 am 10:53 Cloudy 56 13.3 47 8.3 72 72 SE 12 19 30.23 1024 10 16.0934 0 0
11:53 am 11:53 Cloudy 58 14.4 47 8.3 67 67 SSE 16 26 30.21 1023 10 16.0934 0 0
12:53 pm 12:53 Cloudy 58 14.4 48 8.9 70 70 SSE 16 26 30.19 1022 10 16.0934 0 0
1:53 pm 13:53 Cloudy 57 13.9 48 8.9 72 72 SSE 14 22 30.18 1022 10 16.0934 0 0
2:53 pm 14:53 Cloudy with Light Rain 57 13.9 49 9.4 74 74 SSE 15 24 30.17 1022 6 9.65604 0 0.0254
3:53 pm 15:53 Cloudy 56 13.3 51 10.6 84 84 SE 12 19 30.15 1021 10 16.0934 0.01 0.254
4:53 pm 16:53 Cloudy 57 13.9 50 10 78 78 SE 13 20 30.14 1021 10 16.0934 0 0
5:53 pm 17:53 Cloudy 57 13.9 49 9.4 74 74 ESE 12 19 30.13 1020 10 16.0934 0 0
6:53 pm 18:53 Cloudy 56 13.3 49 9.4 77 77 SE 15 24 30.13 1020 10 16.0934 0 0
7:26 pm 19:26 Partly Cloudy 55 13 48 9 77 77 SE 13 20 30.03 1017 10 16.0934 0 0
7:37 pm 19:37 Mostly Cloudy 54 12.2 49 9.4 83 83 SE 14 22 30.06 1018 10 16.0934 0 0
7:44 pm 19:44 Mostly Cloudy 54 12.2 49 9.4 83 83 SE 14 22 30.06 1018 10 16.0934 0 0
7:53 pm 19:53 Cloudy 54 12.2 49 9.4 83 83 SE 12 19 30.12 1020 10 16.0934 0 0
8:42 pm 20:42 Partly Cloudy 54 12 48 9 82 82 SE 12 19 30.06 1018 10 16.0934 0 0
8:53 pm 20:53 Mostly Clear 52 11.1 49 9.4 89 89 ESE 10 17 30.12 1020 10 16.0934 0 0
9:28 pm 21:28 Mostly Cloudy 52 11 48 9 88 88 SE 8 13 30.06 1018 10 16.0934 0 0
9:38 pm 21:38 Mostly Cloudy 52 11 48 9 88 88 SE 8 13 30.06 1018 10 16.0934 0 0
9:53 pm 21:53 Cloudy 53 11.7 49 9.4 86 86 ESE 10 17 30.1 1019 10 16.0934 0 0
10:21 pm 22:21 Partly Cloudy 51 10.6 48 8.9 89 89 ESE 8 13 30.09 1019 10 16.0934 0 0
10:43 pm 22:43 Mostly Cloudy 51 10.6 48 8.9 89 89 E 8 13 30.09 1019 10 16.0934 0 0
10:53 pm 22:53 Cloudy 51 10.6 49 9.4 92 92 ESE 9 15 30.09 1019 10 16.0934 0 0
11:53 pm 23:53 Cloudy 52 11.1 49 9.4 89 89 ESE 8 13 30.07 1018 10 16.0934 0 0

Powered by AerisWeather